Weather History for CWWB - October, 2012

Change the Weather History Date:

Thursday, October 4, 2012

  Actual Average Record
Temperature  
Mean Temperature 65 °F -  
Max Temperature 73 °F - - ()
Min Temperature 57 °F - - ()
Growing Degree Days 15 (Base 50)    
Moisture  
Dew Point 54 °F    
Average Humidity 66    
Maximum Humidity 88    
Minimum Humidity 33    
Precipitation  
Precipitation 0.00 in - - ()
Sea Level Pressure  
Sea Level Pressure 30.06 in    
Wind  
Wind Speed 7 mph ()    
Max Wind Speed 18 mph    
Max Gust Speed 28 mph    
T = Trace of Precipitation, MM = Missing Value Source: Averaged Metar Reports

Daily Weather History Graph

Daily Weather History Graph

Search for Another Location

Airport or City:

Trip Planner

Search our weather history database for the weather conditions in past years. The results will help you decide how hot, cold, wet, or windy it might be!

Date:

Astronomy

Oct. 04, 2012 Rise Set
Actual Time 7:20 AM EDT 6:54 PM EDT
Civil Twilight 6:52 AM EDT 7:22 PM EDT
Nautical Twilight 6:19 AM EDT 7:55 PM EDT
Astronomical Twilight 5:45 AM EDT 8:28 PM EDT
Moon 9:20 PM EDT (10/4) 11:43 AM EDT (10/4)
Length of Visible Light 12h 30m
Length of Day
11h 33m
Waning Gibbous, 82% of the Moon is Illuminated
Oct 4
Waning Gibbous
Oct 8
Last Quarter
Oct 15
New
Oct 21
First Quarter
Oct 29
Full

Hourly Weather History & Observations

Time (EDT) Temp. Dew Point Humidity Pressure Visibility Wind Dir Wind Speed Gust Speed Precip Events Conditions
12:00 AM 63.7 °F 56.1 °F 76% 30.11 in - SSW 6.9 mph - N/A   Unknown
1:00 AM 63.0 °F 56.1 °F 78% 30.12 in - SSW 4.6 mph - N/A   Unknown
2:00 AM 62 °F 55 °F 73% 30.12 in - South 5.8 mph - -  
2:00 AM 62.2 °F 55.4 °F 78% 30.12 in - South 5.8 mph - N/A   Unknown
3:00 AM 61.7 °F 55.8 °F 81% 30.11 in - SSW 2.3 mph - N/A   Unknown
4:00 AM 58.6 °F 55.0 °F 88% 30.10 in - NNW 1.2 mph - N/A   Unknown
5:00 AM 57.4 °F 54.0 °F 88% 30.10 in - NNW 1.2 mph - N/A   Unknown
6:00 AM 60.1 °F 55.6 °F 85% 30.09 in - West 1.2 mph - N/A   Unknown
7:00 AM 61.5 °F 56.1 °F 82% 30.09 in - SSW 3.5 mph - N/A   Unknown
8:00 AM 63 °F 57 °F 74% 30.09 in - SSW 8.1 mph - -  
8:00 AM 63.1 °F 56.8 °F 80% 30.09 in - SSW 8.1 mph - N/A   Unknown
9:00 AM 63.9 °F 56.8 °F 78% 30.08 in - SSW 6.9 mph - N/A   Unknown
10:00 AM 65.8 °F 56.1 °F 71% 30.07 in - SSW 9.2 mph - N/A   Unknown
11:00 AM 68.7 °F 55.4 °F 62% 30.06 in - SSW 10.4 mph - N/A   Unknown
12:00 PM 70.2 °F 54.9 °F 58% 30.06 in - SW 11.5 mph 19.6 mph N/A   Unknown
1:00 PM 72.3 °F 53.1 °F 51% 30.04 in - SSW 11.5 mph - N/A   Unknown
2:00 PM 73 °F 50 °F 33% 30.01 in - SSW 18.4 mph - -  
2:00 PM 73.2 °F 49.8 °F 44% 30.01 in - SSW 18.4 mph 27.6 mph N/A   Unknown
3:00 PM 73.2 °F 50.5 °F 45% 29.99 in - SSW 18.4 mph 25.3 mph N/A   Unknown
4:00 PM 72.3 °F 50.5 °F 46% 29.99 in - SSW 16.1 mph 24.2 mph N/A   Unknown
5:00 PM 71.1 °F 54.0 °F 55% 29.99 in - SSW 13.8 mph 20.7 mph N/A   Unknown
6:00 PM 70.9 °F 54.1 °F 55% 30.01 in - SSW 11.5 mph - N/A   Unknown
7:00 PM 69.6 °F 54.3 °F 58% 30.01 in - SSW 12.7 mph 20.7 mph N/A   Unknown
8:00 PM 68 °F 54 °F 50% 30.02 in - SSW 8.1 mph - -  
8:00 PM 67.6 °F 53.6 °F 61% 30.02 in - SSW 8.1 mph - N/A   Unknown
9:00 PM 66.0 °F 53.6 °F 64% 30.03 in - SW 9.2 mph - N/A   Unknown
10:00 PM 64.6 °F 53.1 °F 66% 30.03 in - WSW 3.5 mph - N/A   Unknown
11:00 PM 65.3 °F 52.3 °F 63% 30.01 in - South 6.9 mph - N/A   Unknown